^^
Saratoga-Weather Station Historical Data
Daily Summary for June 18, 2021 Units:  English    Metric   Both
Daily Weekly Monthly Yearly Custom
  High: Low: Average:
Temperature: 84.4 °F 61.5 °F 73 °F
Dew Point: 63.1 °F 57.4 °F 60.3 °F
Humidity: 87% 43% 67%
Wind Speed: 8.9mph 0mph 2.4mph
Wind Gust: 13mph - -
Wind- - SSW
Pressure: 30.2 in 30.1 in -
Precipitation: 0 in    
Historical Graphs
 
 
Tabular Data for June 18, 2021
Time Temperature Dew Point Pressure Wind Wind Speed Wind Gust Humidity Rainfall Rate (Hourly) solar
00:02 69.3 °F 62.1 °F 30.2 in Calm   3 mph 78% 0 in 0 W/m2
00:07 69.3 °F 62.1 °F 30.2 in WNW 0.9 mph 3 mph 78% 0 in 0 W/m2
00:12 69.1 °F 61.9 °F 30.2 in NW 2 mph 6 mph 78% 0 in 0 W/m2
00:17 69.1 °F 61.9 °F 30.2 in WNW 0.9 mph 2 mph 78% 0 in 0 W/m2
00:22 69.1 °F 61.9 °F 30.2 in WNW 0.9 mph 6 mph 78% 0 in 0 W/m2
00:27 69.1 °F 61.9 °F 30.2 in WNW 0.9 mph 7 mph 78% 0 in 0 W/m2
00:32 69.1 °F 61.9 °F 30.2 in WNW 2.9 mph 3 mph 78% 0 in 0 W/m2
00:37 68.9 °F 61.7 °F 30.2 in WNW 2 mph 7 mph 78% 0 in 0 W/m2
00:42 68.7 °F 61.2 °F 30.2 in WNW 2 mph 9 mph 77% 0 in 0 W/m2
00:47 68.9 °F 61.3 °F 30.2 in NW 2 mph 3 mph 77% 0 in 0 W/m2
00:52 68.9 °F 61.3 °F 30.2 in WNW 0.9 mph 8 mph 77% 0 in 0 W/m2
00:57 68.9 °F 61 °F 30.2 in WNW 2.9 mph 3 mph 76% 0 in 0 W/m2
01:02 68.7 °F 60.8 °F 30.2 in West 2 mph 3 mph 76% 0 in 0 W/m2
01:07 68.7 °F 60.8 °F 30.2 in West 2.9 mph 4 mph 76% 0 in 0 W/m2
01:12 68.5 °F 60.6 °F 30.2 in West 2.9 mph 3 mph 76% 0 in 0 W/m2
01:17 68.5 °F 60.6 °F 30.2 in WNW 0.9 mph 4 mph 76% 0 in 0 W/m2
01:22 68.4 °F 60.8 °F 30.2 in West 2.9 mph 4 mph 77% 0 in 0 W/m2
01:27 68.2 °F 60.3 °F 30.2 in WNW 2.9 mph 5 mph 76% 0 in 0 W/m2
01:32 68.2 °F 60.3 °F 30.2 in WNW 2.9 mph 4 mph 76% 0 in 0 W/m2
01:37 68.2 °F 60.3 °F 30.2 in NNW 0.9 mph 4 mph 76% 0 in 0 W/m2
01:42 68 °F 60.1 °F 30.2 in WSW 4.9 mph 5 mph 76% 0 in 0 W/m2
01:47 68 °F 60.1 °F 30.2 in Calm   4 mph 76% 0 in 0 W/m2
01:52 67.8 °F 59.9 °F 30.2 in WNW 0.9 mph 4 mph 76% 0 in 0 W/m2
01:57 67.6 °F 59.7 °F 30.2 in West 6 mph 6 mph 76% 0 in 0 W/m2
02:02 67.5 °F 60.1 °F 30.2 in West 4 mph 4 mph 77% 0 in 0 W/m2
02:07 67.5 °F 60.1 °F 30.2 in West 0.9 mph 8 mph 77% 0 in 0 W/m2
02:12 67.3 °F 59.9 °F 30.2 in NW 6 mph 7 mph 77% 0 in 0 W/m2
02:17 67.1 °F 59.7 °F 30.2 in WNW 2.9 mph 8 mph 77% 0 in 0 W/m2
02:22 66.9 °F 59.5 °F 30.2 in WNW 2 mph 2 mph 77% 0 in 0 W/m2
02:27 66.6 °F 59.5 °F 30.2 in WNW 2.9 mph 5 mph 78% 0 in 0 W/m2
02:32 66.6 °F 59.5 °F 30.2 in WNW 0.9 mph 6 mph 78% 0 in 0 W/m2
02:37 66.4 °F 59.4 °F 30.2 in WNW 2.9 mph 7 mph 78% 0 in 0 W/m2
02:42 66.2 °F 59.2 °F 30.2 in WSW 6 mph 8 mph 78% 0 in 0 W/m2
02:47 66 °F 59 °F 30.2 in WNW 2 mph 6 mph 78% 0 in 0 W/m2
02:52 66 °F 59 °F 30.2 in WNW 2 mph 8 mph 78% 0 in 0 W/m2
02:57 65.8 °F 58.8 °F 30.2 in West 4 mph 8 mph 78% 0 in 0 W/m2
03:02 65.8 °F 58.8 °F 30.2 in NW 2.9 mph 4 mph 78% 0 in 0 W/m2
03:07 65.7 °F 58.6 °F 30.2 in NNW 2 mph 8 mph 78% 0 in 0 W/m2
03:12 65.5 °F 58.8 °F 30.2 in WSW 2 mph 3 mph 79% 0 in 0 W/m2
03:17 65.3 °F 58.6 °F 30.2 in NW 0.9 mph 5 mph 79% 0 in 0 W/m2
03:22 65.1 °F 58.5 °F 30.2 in Calm   6 mph 79% 0 in 0 W/m2
03:27 65.1 °F 58.5 °F 30.2 in West 2.9 mph 3 mph 79% 0 in 0 W/m2
03:32 64.9 °F 58.3 °F 30.2 in ENE 0.9 mph 5 mph 79% 0 in 0 W/m2
03:37 64.8 °F 58.1 °F 30.2 in Calm   1 mph 79% 0 in 0 W/m2
03:42 64.6 °F 58.3 °F 30.2 in West 0.9 mph 5 mph 80% 0 in 0 W/m2
03:47 64.2 °F 58.3 °F 30.2 in Calm   2 mph 81% 0 in 0 W/m2
03:52 64 °F 58.5 °F 30.2 in Calm     82% 0 in 0 W/m2
03:57 63.7 °F 58.1 °F 30.2 in Calm     82% 0 in 0 W/m2
04:03 63.1 °F 57.9 °F 30.2 in Calm   3 mph 83% 0 in 0 W/m2
04:08 63 °F 58.1 °F 30.2 in South 2 mph 2 mph 84% 0 in 0 W/m2
04:13 62.8 °F 57.9 °F 30.2 in SSE 2 mph 4 mph 84% 0 in 0 W/m2
04:18 62.8 °F 57.9 °F 30.2 in Calm   1 mph 84% 0 in 0 W/m2
04:23 62.8 °F 57.9 °F 30.2 in East 0.9 mph 3 mph 84% 0 in 0 W/m2
04:28 62.4 °F 57.6 °F 30.2 in ENE 0.9 mph 2 mph 84% 0 in 0 W/m2
04:33 62.2 °F 57.7 °F 30.2 in WNW 2 mph 5 mph 85% 0 in 0 W/m2
04:38 62.4 °F 57.9 °F 30.2 in West 2 mph 6 mph 85% 0 in 0 W/m2
04:43 62.8 °F 57.9 °F 30.2 in WNW 2 mph 5 mph 84% 0 in 0 W/m2
04:48 63 °F 58.1 °F 30.2 in West 0.9 mph 2 mph 84% 0 in 0 W/m2
04:53 63 °F 57.7 °F 30.2 in West 0.9 mph 4 mph 83% 0 in 0 W/m2
04:58 62.8 °F 57.9 °F 30.2 in NNW 0.9 mph 3 mph 84% 0 in 0 W/m2
05:03 62.8 °F 57.9 °F 30.2 in SSW 2 mph 3 mph 84% 0 in 0 W/m2
05:08 62.4 °F 57.9 °F 30.2 in Calm   2 mph 85% 0 in 0 W/m2
05:13 62.2 °F 57.7 °F 30.2 in WSW 0.9 mph 3 mph 85% 0 in 0 W/m2
05:18 62.2 °F 57.7 °F 30.2 in WNW 0.9 mph 3 mph 85% 0 in 0 W/m2
05:23 62.2 °F 57.7 °F 30.2 in West 2 mph 2 mph 85% 0 in 0 W/m2
05:28 62.1 °F 57.6 °F 30.2 in South 2 mph 2 mph 85% 0 in 0 W/m2
05:33 62.1 °F 57.7 °F 30.2 in Calm   2 mph 86% 0 in 0 W/m2
05:38 61.7 °F 57.4 °F 30.2 in WNW 2 mph 4 mph 86% 0 in 0 W/m2
05:43 61.5 °F 57.6 °F 30.2 in Calm   3 mph 87% 0 in 0 W/m2
05:48 61.5 °F 57.6 °F 30.2 in NW 0.9 mph 4 mph 87% 0 in 0 W/m2
05:53 61.7 °F 57.7 °F 30.2 in West 2.9 mph 7 mph 87% 0 in 5 W/m2
05:58 62.1 °F 58.1 °F 30.2 in WNW 2.9 mph 4 mph 87% 0 in 7 W/m2
06:03 62.1 °F 57.7 °F 30.2 in WSW 0.9 mph 2 mph 86% 0 in 9 W/m2
06:08 62.2 °F 57.9 °F 30.2 in West 0.9 mph 3 mph 86% 0 in 12 W/m2
06:13 62.1 °F 57.7 °F 30.2 in NNE 0.9 mph 2 mph 86% 0 in 14 W/m2
06:18 62.1 °F 57.7 °F 30.2 in East 0.9 mph 1 mph 86% 0 in 16 W/m2
06:23 62.1 °F 58.1 °F 30.2 in Calm   4 mph 87% 0 in 19 W/m2
06:28 61.9 °F 57.9 °F 30.2 in Calm   3 mph 87% 0 in 21 W/m2
06:33 61.9 °F 57.9 °F 30.2 in Calm   4 mph 87% 0 in 23 W/m2
06:38 61.9 °F 57.9 °F 30.2 in NNW 2 mph 6 mph 87% 0 in 26 W/m2
06:43 61.9 °F 57.9 °F 30.2 in NNW 2 mph 3 mph 87% 0 in 28 W/m2
06:48 61.9 °F 57.9 °F 30.2 in NNE 2.9 mph 6 mph 87% 0 in 28 W/m2
06:53 62.1 °F 58.1 °F 30.2 in SSE 0.9 mph 5 mph 87% 0 in 30 W/m2
06:58 62.1 °F 58.1 °F 30.2 in NNW 2 mph 6 mph 87% 0 in 32 W/m2
07:03 62.2 °F 58.3 °F 30.2 in NE 0.9 mph 4 mph 87% 0 in 32 W/m2
07:08 62.2 °F 58.3 °F 30.2 in West 0.9 mph 5 mph 87% 0 in 33 W/m2
07:13 62.4 °F 58.5 °F 30.2 in ESE 0.9 mph 2 mph 87% 0 in 33 W/m2
07:18 62.4 °F 58.5 °F 30.2 in ENE 2.9 mph 5 mph 87% 0 in 35 W/m2
07:23 62.4 °F 58.5 °F 30.2 in NNE 2 mph 4 mph 87% 0 in 37 W/m2
07:28 62.8 °F 58.8 °F 30.2 in ENE 0.9 mph 3 mph 87% 0 in 37 W/m2
07:33 62.8 °F 58.8 °F 30.2 in ENE 2.9 mph 5 mph 87% 0 in 39 W/m2
07:38 63 °F 59 °F 30.2 in NW 2 mph 4 mph 87% 0 in 39 W/m2
07:43 63 °F 59 °F 30.2 in NW 4.9 mph 5 mph 87% 0 in 40 W/m2
07:48 63.1 °F 59.2 °F 30.2 in WNW 6.9 mph 8 mph 87% 0 in 42 W/m2
07:53 63.3 °F 59 °F 30.2 in NNE 2.9 mph 6 mph 86% 0 in 67 W/m2
07:58 63.5 °F 59.2 °F 30.2 in NW 0.9 mph 6 mph 86% 0 in 202 W/m2
08:03 63.9 °F 59.5 °F 30.2 in NW 4.9 mph 5 mph 86% 0 in 206 W/m2
08:08 64.2 °F 59.9 °F 30.2 in ENE 6 mph 6 mph 86% 0 in 98 W/m2
08:13 64.8 °F 59.9 °F 30.2 in NE 0.9 mph 6 mph 84% 0 in 53 W/m2
08:18 65.1 °F 60.1 °F 30.2 in WSW 2 mph 3 mph 84% 0 in 51 W/m2
08:23 65.5 °F 60.4 °F 30.2 in NW 0.9 mph 5 mph 84% 0 in 51 W/m2
08:28 65.5 °F 60.3 °F 30.2 in North 4.9 mph 5 mph 83% 0 in 51 W/m2
08:33 65.8 °F 60.6 °F 30.2 in North 2.9 mph 5 mph 83% 0 in 49 W/m2
08:38 65.8 °F 60.6 °F 30.2 in ENE 0.9 mph 4 mph 83% 0 in 51 W/m2
08:43 66.2 °F 60.6 °F 30.2 in East 0.9 mph 6 mph 82% 0 in 49 W/m2
08:48 66.6 °F 60.6 °F 30.2 in SSE 2 mph 5 mph 81% 0 in 51 W/m2
08:53 66.9 °F 60.6 °F 30.2 in ENE 4.9 mph 6 mph 80% 0 in 51 W/m2
08:58 67.3 °F 60.6 °F 30.2 in North 2.9 mph 5 mph 79% 0 in 51 W/m2
09:03 67.3 °F 61 °F 30.2 in WSW 0.9 mph 6 mph 80% 0 in 107 W/m2
09:08 67.5 °F 60.8 °F 30.2 in NE 0.9 mph 7 mph 79% 0 in 283 W/m2
09:13 67.8 °F 61 °F 30.2 in ENE 2 mph 5 mph 79% 0 in 415 W/m2
09:18 68.2 °F 60.6 °F 30.2 in NNW 2 mph 5 mph 77% 0 in 445 W/m2
09:23 68.4 °F 60.4 °F 30.2 in NNE 2.9 mph 6 mph 76% 0 in 459 W/m2
09:28 68.5 °F 60.6 °F 30.2 in NE 2 mph 6 mph 76% 0 in 475 W/m2
09:33 68.9 °F 60.6 °F 30.2 in NNE 0.9 mph 4 mph 75% 0 in 489 W/m2
09:38 69.1 °F 60.4 °F 30.2 in NNW 4 mph 5 mph 74% 0 in 504 W/m2
09:43 69.4 °F 60.4 °F 30.2 in ENE 0.9 mph 4 mph 73% 0 in 519 W/m2
09:48 69.8 °F 60.8 °F 30.2 in SE 2.9 mph 7 mph 73% 0 in 536 W/m2
09:53 70 °F 60.6 °F 30.2 in Calm   5 mph 72% 0 in 545 W/m2
09:58 70.3 °F 60.4 °F 30.2 in South 0.9 mph 3 mph 71% 0 in 563 W/m2
10:03 70.5 °F 59.9 °F 30.2 in ENE 2.9 mph 9 mph 69% 0 in 464 W/m2
10:08 70.7 °F 60.8 °F 30.2 in NE 4 mph 5 mph 71% 0 in 47 W/m2
10:13 71.1 °F 60.4 °F 30.2 in North 4 mph 9 mph 69% 0 in 596 W/m2
10:18 71.1 °F 59.9 °F 30.2 in WNW 0.9 mph 11 mph 68% 0 in 606 W/m2
10:23 71.2 °F 60.1 °F 30.2 in NE 2.9 mph 7 mph 68% 0 in 619 W/m2
10:28 71.4 °F 60.3 °F 30.2 in NW 0.9 mph 3 mph 68% 0 in 635 W/m2
10:33 71.8 °F 60.6 °F 30.2 in SSE 4 mph 7 mph 68% 0 in 647 W/m2
10:39 72.1 °F 60.6 °F 30.2 in WNW 4 mph 8 mph 67% 0 in 657 W/m2
10:44 72 °F 60.4 °F 30.2 in NNW 6 mph 11 mph 67% 0 in 670 W/m2
10:49 72.1 °F 60.6 °F 30.2 in East 2 mph 9 mph 67% 0 in 682 W/m2
10:54 72.7 °F 60.3 °F 30.2 in ENE 0.9 mph 5 mph 65% 0 in 693 W/m2
10:59 72.9 °F 60.4 °F 30.2 in NW 2.9 mph 7 mph 65% 0 in 701 W/m2
11:04 73.2 °F 60.8 °F 30.2 in ENE 4.9 mph 8 mph 65% 0 in 715 W/m2
11:09 73.6 °F 60.6 °F 30.2 in NE 2 mph 8 mph 64% 0 in 726 W/m2
11:14 73.9 °F 60.6 °F 30.2 in NW 4 mph 12 mph 63% 0 in 733 W/m2
11:19 73.9 °F 61 °F 30.2 in NNW 2.9 mph 4 mph 64% 0 in 747 W/m2
11:24 74.1 °F 60.3 °F 30.2 in South 2 mph 13 mph 62% 0 in 756 W/m2
11:29 74.5 °F 60.6 °F 30.2 in SE 4 mph 10 mph 62% 0 in 768 W/m2
11:34 74.7 °F 60.8 °F 30.2 in WNW 4 mph 6 mph 62% 0 in 770 W/m2
11:39 74.7 °F 60.8 °F 30.2 in NNW 6 mph 10 mph 62% 0 in 777 W/m2
11:44 74.8 °F 61.3 °F 30.2 in North 4.9 mph 8 mph 63% 0 in 793 W/m2
11:49 75.6 °F 61.2 °F 30.2 in WNW 0.9 mph 8 mph 61% 0 in 800 W/m2
11:54 75.6 °F 60.6 °F 30.2 in NW 6 mph 10 mph 60% 0 in 803 W/m2
11:59 75.6 °F 60.3 °F 30.2 in WNW 6.9 mph 7 mph 59% 0 in 810 W/m2
12:04 75.6 °F 60.6 °F 30.2 in SSW 2 mph 6 mph 60% 0 in 817 W/m2
12:09 75.7 °F 60.8 °F 30.2 in East 0.9 mph 5 mph 60% 0 in 823 W/m2
12:14 75.9 °F 59.5 °F 30.2 in NW 4 mph 11 mph 57% 0 in 838 W/m2
12:19 76.1 °F 60.3 °F 30.2 in NNW 4 mph 12 mph 58% 0 in 842 W/m2
12:24 76.3 °F 61 °F 30.2 in NNW 4.9 mph 11 mph 59% 0 in 840 W/m2
12:29 76.5 °F 60.1 °F 30.1 in North 2 mph 12 mph 57% 0 in 851 W/m2
12:34 76.8 °F 60.4 °F 30.2 in East 2.9 mph 10 mph 57% 0 in 856 W/m2
12:39 77.2 °F 60.3 °F 30.2 in NE 8.9 mph 9 mph 56% 0 in 861 W/m2
12:44 77.4 °F 60.4 °F 30.1 in East 8.1 mph 8 mph 56% 0 in 877 W/m2
12:49 77.5 °F 60.6 °F 30.1 in NNW 4 mph 7 mph 56% 0 in 877 W/m2
12:54 77.7 °F 60.8 °F 30.1 in NW 2 mph 7 mph 56% 0 in 884 W/m2
12:59 77.9 °F 61 °F 30.1 in NE 4 mph 10 mph 56% 0 in 889 W/m2
13:04 78.1 °F 61.2 °F 30.1 in ENE 4.9 mph 10 mph 56% 0 in 891 W/m2
13:09 78.4 °F 61 °F 30.1 in ESE 2 mph 11 mph 55% 0 in 898 W/m2
13:14 78.6 °F 61.2 °F 30.1 in West 0.9 mph 5 mph 55% 0 in 895 W/m2
13:19 79 °F 61 °F 30.1 in ENE 4.9 mph 10 mph 54% 0 in 898 W/m2
13:24 79 °F 61.5 °F 30.1 in ENE 2 mph 8 mph 55% 0 in 904 W/m2
13:29 79.2 °F 60.6 °F 30.1 in ESE 4 mph 7 mph 53% 0 in 907 W/m2
13:34 79.3 °F 61.7 °F 30.1 in ENE 4.9 mph 6 mph 55% 0 in 902 W/m2
13:39 79.3 °F 61.2 °F 30.1 in NE 2 mph 8 mph 54% 0 in 900 W/m2
13:44 79.5 °F 62.4 °F 30.1 in NNW 2 mph 4 mph 56% 0 in 895 W/m2
13:49 79.9 °F 62.2 °F 30.1 in ENE 0.9 mph 6 mph 55% 0 in 902 W/m2
13:54 79.7 °F 62.1 °F 30.1 in NE 6 mph 10 mph 55% 0 in 895 W/m2
13:59 79.9 °F 62.2 °F 30.1 in NNE 2 mph 4 mph 55% 0 in 896 W/m2
14:04 80.1 °F 63 °F 30.1 in NE 0.9 mph 10 mph 56% 0 in 896 W/m2
14:09 80.4 °F 62.8 °F 30.1 in Calm   4 mph 55% 0 in 902 W/m2
14:14 81 °F 62.2 °F 30.1 in ENE 2.9 mph 6 mph 53% 0 in 891 W/m2
14:19 81 °F 61.7 °F 30.1 in ENE 6.9 mph 7 mph 52% 0 in 891 W/m2
14:24 80.8 °F 62.1 °F 30.1 in WNW 4.9 mph 8 mph 53% 0 in 888 W/m2
14:29 81 °F 61.2 °F 30.1 in ENE 4 mph 9 mph 51% 0 in 881 W/m2
14:34 81 °F 62.8 °F 30.1 in ENE 2.9 mph 3 mph 54% 0 in 888 W/m2
14:39 81.1 °F 63 °F 30.1 in NE 4 mph 11 mph 54% 0 in 874 W/m2
14:44 81.3 °F 61.5 °F 30.1 in ESE 0.9 mph 9 mph 51% 0 in 884 W/m2
14:49 81.3 °F 62.1 °F 30.1 in WNW 2.9 mph 11 mph 52% 0 in 872 W/m2
14:54 81.7 °F 61.9 °F 30.1 in East 2 mph 10 mph 51% 0 in 872 W/m2
14:59 81.7 °F 61.9 °F 30.1 in NNW 4 mph 9 mph 51% 0 in 874 W/m2
15:04 81.9 °F 62.4 °F 30.1 in NE 2 mph 10 mph 52% 0 in 861 W/m2
15:09 81.9 °F 62.4 °F 30.1 in NW 2.9 mph 9 mph 52% 0 in 856 W/m2
15:14 82.2 °F 61.7 °F 30.1 in ENE 2 mph 11 mph 50% 0 in 861 W/m2
15:19 82.2 °F 61.7 °F 30.1 in ENE 4 mph 6 mph 50% 0 in 847 W/m2
15:24 82.4 °F 62.4 °F 30.1 in WNW 2 mph 6 mph 51% 0 in 837 W/m2
15:29 82.6 °F 61 °F 30.1 in WNW 2 mph 5 mph 48% 0 in 844 W/m2
15:34 82.6 °F 61.5 °F 30.1 in South 0.9 mph 8 mph 49% 0 in 828 W/m2
15:39 82.8 °F 62.2 °F 30.1 in North 2 mph 4 mph 50% 0 in 816 W/m2
15:44 82.9 °F 63 °F 30.1 in NNW 0.9 mph 6 mph 51% 0 in 814 W/m2
15:49 82.8 °F 62.2 °F 30.1 in NNW 6 mph 9 mph 50% 0 in 809 W/m2
15:54 82.9 °F 62.4 °F 30.1 in SSE 2 mph 7 mph 50% 0 in 795 W/m2
15:59 82.9 °F 61.9 °F 30.1 in NNE 2.9 mph 8 mph 49% 0 in 786 W/m2
16:04 83.1 °F 62.6 °F 30.1 in SE 2 mph 6 mph 50% 0 in 772 W/m2
16:09 83.1 °F 61.3 °F 30.1 in West 2.9 mph 12 mph 48% 0 in 765 W/m2
16:14 83.1 °F 63.1 °F 30.1 in WNW 2.9 mph 6 mph 51% 0 in 766 W/m2
16:19 83.5 °F 63 °F 30.1 in ENE 4.9 mph 11 mph 50% 0 in 751 W/m2
16:24 83.5 °F 61.7 °F 30.1 in ESE 2.9 mph 7 mph 48% 0 in 745 W/m2
16:29 83.5 °F 61.2 °F 30.1 in NNW 2 mph 6 mph 47% 0 in 737 W/m2
16:34 83.3 °F 60.4 °F 30.1 in West 2.9 mph 8 mph 46% 0 in 728 W/m2
16:39 83.1 °F 60.3 °F 30.1 in NW 4 mph 9 mph 46% 0 in 719 W/m2
16:44 82.9 °F 61.2 °F 30.1 in North 2.9 mph 7 mph 48% 0 in 707 W/m2
16:49 83.1 °F 62.1 °F 30.1 in NW 2 mph 6 mph 49% 0 in 693 W/m2
16:54 83.5 °F 61.7 °F 30.1 in SW 0.9 mph 3 mph 48% 0 in 686 W/m2
16:59 84 °F 60.4 °F 30.1 in WSW 2 mph 5 mph 45% 0 in 677 W/m2
17:04 84.4 °F 61.3 °F 30.1 in NNE 4.9 mph 10 mph 46% 0 in 663 W/m2
17:09 84.4 °F 60.8 °F 30.1 in NNW 0.9 mph 4 mph 45% 0 in 657 W/m2
17:14 84.4 °F 59.4 °F 30.1 in WNW 4 mph 11 mph 43% 0 in 643 W/m2
17:19 84.4 °F 59.4 °F 30.1 in East 2.9 mph 7 mph 43% 0 in 629 W/m2
17:24 84.2 °F 59.9 °F 30.1 in West 8.1 mph 10 mph 44% 0 in 613 W/m2
17:29 83.8 °F 60.3 °F 30.1 in West 6 mph 8 mph 45% 0 in 599 W/m2
17:34 83.8 °F 60.3 °F 30.1 in NNE 2 mph 5 mph 45% 0 in 582 W/m2
17:39 83.8 °F 60.3 °F 30.1 in NE 2 mph 5 mph 45% 0 in 571 W/m2
17:44 83.8 °F 60.3 °F 30.1 in WSW 0.9 mph 6 mph 45% 0 in 559 W/m2
17:49 84 °F 59.7 °F 30.1 in SW 2 mph 9 mph 44% 0 in 543 W/m2
17:54 83.8 °F 60.8 °F 30.1 in WSW 2.9 mph 8 mph 46% 0 in 533 W/m2
17:59 83.8 °F 60.8 °F 30.1 in WSW 0.9 mph 4 mph 46% 0 in 519 W/m2
18:04 83.7 °F 60.1 °F 30.1 in ESE 0.9 mph 8 mph 45% 0 in 501 W/m2
18:09 83.7 °F 61.3 °F 30.1 in North 4.9 mph 8 mph 47% 0 in 492 W/m2
18:14 83.8 °F 60.8 °F 30.1 in NE 2 mph 3 mph 46% 0 in 478 W/m2
18:19 83.8 °F 60.8 °F 30.1 in SE 0.9 mph 5 mph 46% 0 in 462 W/m2
18:24 83.8 °F 61.5 °F 30.1 in West 2.9 mph 5 mph 47% 0 in 452 W/m2
18:29 83.5 °F 60.4 °F 30.1 in NNW 4 mph 6 mph 46% 0 in 434 W/m2
18:34 83.5 °F 59.9 °F 30.1 in NNW 6 mph 6 mph 45% 0 in 410 W/m2
18:39 83.3 °F 60.4 °F 30.1 in SSE 2 mph 5 mph 46% 0 in 381 W/m2
18:44 83.1 °F 59.5 °F 30.1 in ENE 4.9 mph 10 mph 45% 0 in 345 W/m2
18:49 83.1 °F 59.5 °F 30.1 in NE 4.9 mph 7 mph 45% 0 in 325 W/m2
18:54 82.9 °F 59.4 °F 30.1 in North 4 mph 7 mph 45% 0 in 302 W/m2
18:59 82.9 °F 60.6 °F 30.1 in SW 0.9 mph 3 mph 47% 0 in 283 W/m2
19:04 82.9 °F 60.6 °F 30.1 in NW 6.9 mph 7 mph 47% 0 in 253 W/m2
19:09 83.1 °F 60.8 °F 30.1 in NE 2 mph 6 mph 47% 0 in 232 W/m2
19:14 82.9 °F 60.6 °F 30.1 in North 4.9 mph 6 mph 47% 0 in 223 W/m2
19:19 82.6 °F 60.3 °F 30.1 in ENE 0.9 mph 3 mph 47% 0 in 232 W/m2
19:24 82.6 °F 61 °F 30.1 in North 0.9 mph 4 mph 48% 0 in 243 W/m2
19:29 82.2 °F 60.6 °F 30.1 in East 4 mph 8 mph 48% 0 in 243 W/m2
19:34 82.2 °F 61.2 °F 30.1 in NE 0.9 mph 8 mph 49% 0 in 236 W/m2
19:39 82 °F 61.5 °F 30.1 in North 6 mph 8 mph 50% 0 in 221 W/m2
19:44 81.9 °F 61.3 °F 30.1 in NW 0.9 mph 4 mph 50% 0 in 209 W/m2
19:49 81.7 °F 61.2 °F 30.1 in SW 0.9 mph 8 mph 50% 0 in 188 W/m2
19:55 81.5 °F 61 °F 30.1 in NNW 2 mph 6 mph 50% 0 in 160 W/m2
20:00 81.3 °F 61.5 °F 30.1 in WNW 0.9 mph 3 mph 51% 0 in 139 W/m2
20:05 81.1 °F 61.3 °F 30.1 in North 2 mph 5 mph 51% 0 in 130 W/m2
20:10 80.8 °F 61.5 °F 30.1 in SW 2.9 mph 5 mph 52% 0 in 125 W/m2
20:15 80.8 °F 62.1 °F 30.1 in NW 0.9 mph 4 mph 53% 0 in 116 W/m2
20:20 80.6 °F 61.9 °F 30.1 in NNW 2 mph 2 mph 53% 0 in 104 W/m2
20:25 80.4 °F 61.7 °F 30.1 in SSE 2 mph 4 mph 53% 0 in 91 W/m2
20:30 80.1 °F 61.3 °F 30.1 in SSE 2 mph 4 mph 53% 0 in 77 W/m2
20:35 79.9 °F 61.2 °F 30.1 in SE 2 mph 4 mph 53% 0 in 69 W/m2
20:40 79.3 °F 61.7 °F 30.1 in WNW 0.9 mph 7 mph 55% 0 in 62 W/m2
20:45 79.2 °F 61.5 °F 30.1 in NNE 2 mph 3 mph 55% 0 in 49 W/m2
20:50 79 °F 61.9 °F 30.1 in NNW 4.9 mph 6 mph 56% 0 in 42 W/m2
20:55 78.6 °F 61.5 °F 30.1 in West 0.9 mph 3 mph 56% 0 in 37 W/m2
21:00 78.4 °F 61.9 °F 30.1 in NE 0.9 mph 3 mph 57% 0 in 32 W/m2
21:05 78.1 °F 62.1 °F 30.1 in Calm   2 mph 58% 0 in 28 W/m2
21:10 77.9 °F 62.4 °F 30.1 in WSW 0.9 mph 2 mph 59% 0 in 23 W/m2
21:15 77.5 °F 62.6 °F 30.1 in Calm   2 mph 60% 0 in 16 W/m2
Juneau County Weather
Compliments of Weather Underground - 4 mb